ARIANE 2 DEB, 33581

Orbit data source: Space-Track

ARIANE 2 DEB, 33581 is space debris in HEO originally from a launch on Fri, 27 Jan 1989 UTC launched from the French Guiana (FRGUI). Debris objects in space refer to the collection of defunct objects orbiting the Earth. Examples of debris include non-operational satellites, rocket bodies, and fragments generated from explosions, collisions, or faulty payload assembly.

Loading next visibility...
Identifier
33581, 1989-006BZ
Orbit
HEO
Country
Flag of FRFR
Related business
Manufacturer
EADS/LV
Mission
Spacecraft
Bus & Motor
Unknown
Mass
Unknown
Launch date (UTC)
1989-01-27 (37 years ago)
Launch vehicle
Unknown
Launch site
French Guiana (FRGUI)
Object type
Payload
Rocket body
Debris
Shape & HBR
Unknown shape, 0.2 m
Radar Cross Section
Medium (>0.1 m² and <1 m²)

Expand to show TLE details & history
Last TLE update: 3 days ago

TLE from 3 days ago
0 ARIANE 2 DEB
1 33581U 89006BZ  26059.53269772  .00000720  00000-0  76005-2 0  9995
2 33581   7.8985 156.2669 7124794 274.5408  58.1446  2.30926207 40067
Epoch: 2026-02-28T12:47Z
TLE epoch observation values (Epoch: 2026-02-28T12:47:05.083Z)
Latitude
6.53596°
Longitude
-138.56493°
Altitude
20,328.251 km
Speed
3.656 km/s
True Right ascension
14h 06m 14s
True Declination
6° 31' 32"
Sunlit
Object was in daylight at epoch
Visualization orbit readout
Latitude
Unknown
Longitude
Unknown
Altitude
Unknown
Speed
Unknown
Apparent Right ascension
Unknown
Apparent Declination
Unknown
Sunlit
N/A
Visualization observer readout
Local Sidereal Time
10:44:18
Azimuth
Unknown
Elevation
Unknown
Doppler factor
Unknown
Orbital elements
Apogee altitude
35,034.925 km
Perigee altitude
575.003 km
Semi-major axis
24,183.101 km
Eccentricity
0.71248
Inclination
7.8985°
RAAN
156.2669°
Arg. of periapsis
274.5408°
True anomaly
141.11775°
Mean anomaly
58.1446°
Eccentric anomaly
98.51653°
Mean motion
0.57713 °/min
Orbital period
623.77 mins
BSTAR
0.0076005
Loading maneuver chart data...
Computing Atmospheric mass density...
Loading historical data...
Loading historical data...
Loading historical data...
Loading historical data...
Loading historical data...
Loading historical data...
Loading historical data...

Documentation

Showing up to 5 results
|